SCP
0 0 0 0 0 0 0 0 0 0 0 0 0 0 0 0 0 0 0 0 0 0 0 0 0 0 0 0 0 0 0 0 0 0 0 1 1 1 0 0 0 0 0
0 0 0 0 0 0 0 0 0 0 0 0 0 0 0 0 0 0 0 0 0 0 0 0 0 0 0 0 0 0 0 0 0 0 0 1 1 1 0 0 0 0 0
0 0 0 0 0 0 0 0 0 0 0 0 0 0 0 0 0 0 0 0 0 0 0 0 0 0 0 0 0 0 0 0 0 0 1 1 1 1 0 0 0 0 0
0 0 0 0 0 0 0 0 0 0 0 0 0 0 0 0 0 0 0 0 0 0 0 0 0 0 0 0 0 0 0 0 0 0 1 1 1 1 1 0 0 0 0
0 0 0 0 0 0 0 0 0 0 0 0 0 0 0 0 0 0 0 0 0 0 0 0 0 0 0 0 0 0 0 0 0 0 1 1 1 1 1 0 0 0 0
0 0 0 0 0 0 0 0 0 0 0 0 0 0 0 0 0 0 0 0 0 0 0 0 0 0 0 0 0 0 0 0 0 0 0 1 1 1 1 0 0 0 0
0 0 0 0 0 0 0 0 0 0 0 0 0 0 0 0 0 0 0 0 0 0 0 0 0 0 0 0 0 0 0 0 0 0 0 0 1 1 1 0 0 0 0
0 0 0 0 0 0 0 0 0 0 0 0 0 0 0 0 0 0 0 0 0 0 0 0 0 0 0 0 0 0 0 0 0 0 0 0 0 0 0 0 0 0 0
0 0 0 0 0 0 0 0 0 0 0 0 0 0 0 0 0 0 0 0 0 0 0 0 0 0 0 0 0 0 0 0 0 0 0 0 0 0 0 0 0 0 0
0 0 0 0 0 0 0 0 0 0 0 0 0 0 0 0 0 0 0 0 0 0 0 0 0 0 0 0 0 0 0 0 0 0 0 0 0 0 0 0 0 0 0
0 0 0 0 0 0 0 0 0 0 0 0 0 0 0 0 0 0 0 0 0 0 0 0 0 0 0 0 0 0 0 0 0 0 0 0 0 0 0 0 0 0 0
0 0 0 0 0 0 0 0 0 0 0 0 0 0 0 0 0 0 0 0 0 0 0 0 0 0 0 0 0 0 0 0 0 0 0 0 0 0 0 0 0 0 0
0 0 0 0 0 0 0 0 0 0 0 0 0 0 0 0 0 0 0 0 0 0 0 0 0 0 0 0 0 0 0 0 0 0 0 0 0 0 1 1 0 0 0
0 0 0 0 0 0 0 0 0 0 0 0 0 0 0 0 0 0 0 0 0 0 0 0 0 0 0 0 0 0 0 0 0 0 0 0 0 0 1 1 0 0 0
0 0 0 0 0 0 0 0 0 0 0 0 0 0 0 0 0 0 0 0 0 0 0 0 0 0 0 0 0 0 0 0 0 0 0 0 0 0 0 1 0 0 0
0 0 0 0 0 0 0 0 0 0 0 0 0 0 0 0 0 0 0 0 0 0 0 0 0 0 0 0 0 0 0 0 0 0 0 0 0 0 0 0 0 0 0
0 0 0 0 0 0 0 0 0 0 0 0 0 0 0 0 0 0 0 0 0 0 0 0 0 0 0 0 0 0 0 0 0 0 0 0 0 0 0 0 0 0 0
0 0 0 0 0 0 0 0 0 0 0 0 0 0 0 0 0 0 0 0 0 0 0 0 0 0 0 0 0 0 0 0 0 0 0 0 0 0 0 0 0 0 0
0 0 0 0 0 0 0 0 0 0 0 0 0 0 0 0 0 0 0 0 0 0 0 0 0 0 0 0 0 0 0 0 0 0 0 0 0 0 0 0 0 0 0
0 0 0 0 0 0 0 0 0 0 0 0 0 0 0 0 0 0 0 0 0 0 0 0 0 0 0 0 0 0 0 0 0 0 0 0 0 0 0 0 0 0 0
0 0 0 0 0 0 0 0 0 0 0 0 0 0 0 0 0 0 0 0 0 0 0 0 0 0 0 0 0 0 0 0 0 0 0 0 0 0 0 0 0 0 0
0 0 0 0 0 0 0 0 0 0 0 0 0 0 0 0 0 0 0 0 0 0 0 0 0 0 0 0 0 0 0 0 0 0 0 0 0 0 0 0 0 0 0
0 0 0 0 0 0 0 0 0 0 0 0 0 0 0 0 0 0 0 0 0 0 0 0 0 0 0 0 0 0 0 0 0 0 0 0 0 0 0 0 0 0 0
0 0 0 0 0 0 0 0 0 0 0 0 0 0 0 0 0 0 0 0 0 0 0 0 0 0 0 0 0 0 0 0 0 0 0 0 0 0 0 0 0 0 0
0 0 0 0 0 0 0 0 0 0 0 0 0 0 0 0 0 0 0 0 0 0 0 0 0 0 0 0 0 0 0 0 0 0 0 0 0 0 0 0 0 0 0
0 0 0 0 0 0 0 0 0 0 0 0 0 0 0 0 0 0 0 0 0 0 0 0 0 0 0 0 0 0 0 0 0 0 0 0 0 0 0 0 0 0 0
Wind_Speed
4 4 4 4 5 5 5 6 6 5 6 6 6 6 6 7 6 5 6 6 6 6 6 6 7 5 4 3 3 3 3 2 4 3 2 1 2 5 5 5 5 5 4
4 4 4 5 5 5 6 6 6 6 6 6 7 7 7 7 7 6 7 7 6 7 7 7 7 6 6 4 3 3 3 3 3 4 2 1 1 6 7 7 5 5 4
4 4 4 5 5 6 6 7 6 6 7 7 7 7 8 8 8 8 8 8 8 8 7 7 8 7 7 5 5 4 3 3 3 3 3 1 1 4 6 6 6 5 5
4 4 5 6 6 6 7 6 7 7 7 7 7 8 8 8 8 9 8 8 8 8 8 7 8 8 8 7 6 6 4 4 3 3 3 2 2 4 5 6 5 3 4
4 5 6 6 6 6 6 7 7 7 8 7 7 8 8 7 8 9 8 9 8 8 8 7 8 11 13 10 7 6 6 4 4 4 3 3 4 6 6 5 6 5 3
4 5 6 6 6 6 6 7 7 7 7 7 8 8 9 9 11 14 11 8 7 8 8 7 8 10 13 15 15 13 11 7 6 5 4 5 6 6 6 7 7 6 4
5 5 5 5 6 7 7 7 7 8 7 8 8 8 9 11 15 16 17 10 9 8 8 7 9 9 9 7 10 14 13 14 12 7 6 6 6 7 9 9 9 7 4
5 5 5 6 7 7 7 8 8 7 7 8 9 9 9 11 14 15 17 11 9 9 9 9 9 8 8 7 6 7 7 8 9 7 6 6 5 5 9 9 10 7 6
5 5 6 6 7 8 8 9 8 7 8 8 8 9 9 11 14 15 14 7 7 9 9 9 9 9 11 12 8 7 6 6 8 9 8 8 8 8 8 7 9 10 7
6 6 6 7 7 8 9 9 8 7 8 8 8 8 8 9 12 14 12 5 6 6 6 7 12 11 11 12 9 8 8 7 5 6 6 7 7 9 12 10 10 11 8
5 6 7 7 7 9 8 7 8 8 8 8 8 8 7 8 10 12 10 5 6 6 5 5 6 11 12 13 11 8 9 7 6 6 5 5 5 6 8 8 8 9 9
5 6 7 8 8 8 8 9 8 7 7 7 7 7 5 5 6 7 8 7 6 5 5 4 4 9 11 12 10 9 10 8 4 5 4 5 5 6 7 8 8 6 5
5 7 8 8 8 7 7 9 8 6 5 6 5 5 5 4 5 7 7 6 6 4 4 5 5 6 6 7 10 11 8 5 5 5 5 6 5 5 5 7 8 6 5
5 7 7 8 8 8 6 6 6 6 5 5 5 5 4 4 3 4 4 4 4 3 2 2 2 3 2 3 4 5 4 5 5 5 5 4 3 4 5 6 7 7 6
6 6 7 7 7 8 7 6 7 6 6 6 5 4 4 4 4 5 4 3 2 2 1 1 1 1 2 2 2 3 3 3 4 3 3 3 4 5 4 5 6 7 6
5 6 6 6 6 6 7 8 9 8 10 10 9 7 5 7 7 7 6 6 5 3 1 1 2 3 3 4 4 3 4 4 5 4 4 4 4 5 5 5 6 7 8
5 6 6 6 6 7 6 6 8 8 8 8 9 10 9 9 8 8 7 6 5 2 2 3 3 3 3 3 4 4 5 5 5 5 4 4 4 4 5 6 6 7 8
5 7 7 6 6 7 6 6 5 6 6 6 5 7 9 9 9 8 5 3 3 2 3 4 4 4 4 4 4 4 4 4 4 5 5 5 5 5 5 7 7 7 8
5 5 5 6 6 6 6 6 5 5 5 5 4 4 5 6 6 7 4 3 4 4 4 5 5 4 4 4 4 4 5 5 5 5 5 6 6 5 5 6 7 9 8
4 9 9 6 6 6 5 5 5 5 5 4 4 4 2 2 2 3 3 4 4 5 5 5 5 5 5 5 4 4 4 4 5 5 5 5 5 6 6 7 8 8 8
4 6 10 7 5 5 5 5 5 5 5 4 5 5 4 3 4 4 4 4 4 5 5 5 4 4 4 4 4 5 6 5 5 6 6 6 6 6 5 6 8 8 8
4 4 5 5 5 5 5 5 5 4 5 5 4 4 5 4 3 4 4 4 4 4 4 4 4 4 4 4 5 5 5 5 5 5 5 6 6 6 7 6 7 8 9
4 5 5 5 5 6 6 5 4 4 5 4 4 4 4 3 3 3 4 4 3 3 3 3 3 3 3 3 3 4 5 6 6 6 6 6 7 7 7 8 9 10 10
4 5 5 5 5 5 5 5 5 5 5 4 4 4 4 4 4 4 3 3 3 2 2 1 2 2 3 2 1 2 3 3 4 6 8 7 7 7 7 8 9 11 10
3 4 3 4 4 5 5 5 5 5 5 4 4 4 4 4 3 3 3 2 3 3 2 1 1 1 1 1 2 2 2 4 4 4 6 7 8 8 9 9 9 9 9
2 3 3 3 4 5 5 5 5 6 5 5 4 4 4 4 3 3 3 2 2 2 2 2 2 1 1 0 0 1 2 3 4 5 5 6 8 8 9 8 11 10 11
Wind_Direction
266 257 262 265 265 268 266 267 267 268 271 272 273 276 278 278 278 276 273 274 265 261 258 247 243 235 231 233 230 233 235 219 247 271 276 274 137 146 129 117 114 113 127
252 252 257 263 268 269 267 266 263 263 264 263 265 266 268 272 269 267 269 275 266 263 258 251 248 242 230 226 220 224 228 226 231 257 281 242 167 157 140 128 116 109 103
256 260 270 272 270 267 266 266 264 261 262 264 261 260 262 265 265 263 259 260 258 256 252 246 244 235 232 225 217 220 223 231 226 237 258 253 165 147 133 117 109 103 98
261 268 274 272 268 266 266 267 266 263 262 262 259 255 255 257 259 261 261 260 258 256 250 244 240 229 225 222 218 216 213 215 218 229 238 237 186 154 141 138 130 114 107
270 275 274 273 274 273 275 274 273 270 271 264 261 259 255 256 258 256 253 258 257 258 257 250 245 241 233 220 211 205 200 205 208 213 220 221 195 168 161 148 143 130 96
276 279 280 285 287 286 283 280 277 275 272 270 265 261 260 264 265 262 257 254 251 251 254 253 256 258 249 232 222 209 195 194 202 209 211 217 207 179 159 154 149 151 146
287 289 292 295 294 288 290 291 283 279 274 273 269 263 260 259 259 259 259 254 243 242 243 244 256 255 242 228 228 224 214 207 198 194 208 214 208 186 169 166 167 163 147
296 298 301 300 296 294 292 288 284 278 275 273 273 268 265 267 263 257 256 253 242 238 236 234 235 242 244 225 217 215 211 210 208 203 206 212 208 195 183 174 159 131 102
300 301 299 298 298 301 299 293 288 283 281 276 273 272 269 272 269 264 260 247 240 239 238 236 230 229 234 225 211 207 209 220 219 212 212 216 205 194 173 156 155 152 147
293 293 294 294 297 298 295 290 287 281 279 282 282 276 271 273 275 273 265 240 239 242 240 238 237 231 228 219 205 197 202 210 198 197 210 221 207 192 180 179 172 167 154
288 295 297 297 297 294 290 287 289 288 287 286 285 285 281 279 285 284 275 239 232 235 234 234 235 232 228 219 204 197 205 195 188 187 192 202 197 193 190 188 183 175 165
295 300 299 300 303 308 299 297 294 290 289 290 290 293 291 292 294 298 292 262 234 225 230 232 235 236 227 215 203 202 205 191 172 176 190 199 199 199 194 188 183 182 164
305 306 303 305 304 298 295 297 300 295 288 289 289 290 297 301 306 316 312 289 256 236 236 237 232 228 210 199 199 194 188 179 169 179 196 202 198 193 182 179 171 149 118
304 304 304 307 308 305 300 293 292 292 289 286 286 286 293 299 304 320 322 309 284 259 256 259 225 190 170 169 175 182 178 181 178 184 193 188 173 178 183 177 172 157 141
303 302 305 303 301 305 304 295 290 279 265 264 267 260 271 288 286 300 301 301 286 256 232 194 155 148 162 175 171 172 175 176 186 175 176 175 177 182 182 173 163 155 154
303 306 305 305 305 304 306 310 302 287 285 272 253 245 249 252 279 294 298 299 300 279 229 206 203 195 191 188 183 183 187 191 191 179 174 176 181 185 180 171 166 164 159
292 296 300 300 303 304 304 304 308 312 303 285 269 258 251 261 272 283 287 290 288 266 230 235 228 214 208 200 192 190 195 197 187 180 182 181 180 182 178 173 173 169 163
294 297 301 295 298 299 298 296 291 294 307 310 291 267 264 264 268 272 280 292 275 233 229 233 234 226 217 214 205 200 201 190 183 185 186 181 178 179 181 176 173 171 163
296 295 297 296 297 296 296 296 295 294 291 294 304 302 281 273 273 267 249 233 244 245 238 238 236 227 220 217 213 204 196 191 186 182 185 183 177 173 179 176 170 166 162
292 304 311 302 300 302 303 303 303 300 297 295 292 286 290 270 276 266 232 229 238 246 245 243 241 231 223 216 211 202 193 190 187 186 183 182 178 175 176 173 169 170 174
293 304 313 310 300 299 303 303 301 301 298 293 286 278 265 255 272 274 263 244 240 244 244 242 241 238 229 215 203 198 195 195 190 185 184 181 176 173 173 170 169 169 170
290 291 296 297 299 303 307 305 306 305 304 305 303 303 294 277 274 276 274 266 258 250 243 237 237 236 225 211 203 198 198 196 191 185 181 176 173 171 167 168 168 167 168
290 294 298 299 301 309 316 314 312 306 303 302 304 306 308 300 289 285 285 285 278 269 262 245 236 240 235 224 208 195 195 199 193 182 178 174 171 172 170 169 171 169 171
290 292 298 307 312 314 315 315 315 310 307 306 307 305 304 305 301 296 294 295 295 287 276 259 242 246 242 230 215 201 200 202 192 183 177 174 172 170 170 172 172 173 174
296 300 311 320 322 320 317 319 320 319 318 313 308 307 310 309 306 311 314 311 317 316 319 328 317 293 256 232 215 210 204 199 199 184 176 172 171 170 169 170 169 168 168
321 329 332 332 328 324 322 323 323 325 324 322 318 314 314 312 311 311 312 309 313 320 332 345 353 10 8 322 241 200 187 189 189 183 173 168 168 168 166 167 168 169 168